| time (UTC) | temp C | wind direction | speed KPH | gust KPH | rain 1hr cm | rain 24hr cm | rain mn cm | humidity % | barometer mb |
| 20260906130035 | 21 | 69 | 0.0 | 4.8 | 0.00 | 0.00 | 0.00 | 49 | 1019.2 |
| 20260906125535 | 20 | 69 | 0.0 | 3.2 | 0.00 | 0.00 | 0.00 | 50 | 1019.1 |
| 20260906125035 | 20 | 69 | 0.0 | 3.2 | 0.00 | 0.00 | 0.00 | 50 | 1019.2 |
| 20260906124529 | 20 | 69 | 1.6 | 6.4 | 0.00 | 0.00 | 0.00 | 50 | 1019.0 |
| 20260906124027 | 20 | 69 | 1.6 | 6.4 | 0.00 | 0.00 | 0.00 | 50 | 1018.9 |
| 20260906123525 | 20 | 69 | 0.0 | 4.8 | 0.00 | 0.00 | 0.00 | 50 | 1019.0 |
| 20260906123026 | 20 | 69 | 0.0 | 3.2 | 0.00 | 0.00 | 0.00 | 50 | 1019.0 |
| 20260906122524 | 20 | 69 | 1.6 | 3.2 | 0.00 | 0.00 | 0.00 | 50 | 1019.1 |
| 20260906121518 | 19 | 69 | 0.0 | 3.2 | 0.00 | 0.00 | 0.00 | 50 | 1018.8 |
| 20260906121017 | 19 | 69 | 0.0 | 3.2 | 0.00 | 0.00 | 0.00 | 50 | 1018.6 |
| 20260906120015 | 19 | 69 | 0.0 | 3.2 | 0.00 | 0.00 | 0.00 | 49 | 1018.4 |
| 20260906115515 | 19 | 69 | 0.0 | 3.2 | 0.00 | 0.00 | 0.00 | 49 | 1018.5 |
| 20260906114507 | 19 | 69 | 0.0 | 3.2 | 0.00 | 0.00 | 0.00 | 49 | 1018.3 |
| 20260906114010 | 19 | 69 | 0.0 | 3.2 | 0.00 | 0.00 | 0.00 | 49 | 1018.2 |
| 20260906113507 | 19 | 69 | 1.6 | 3.2 | 0.00 | 0.00 | 0.00 | 48 | 1018.3 |
| 20260906113006 | 19 | 69 | 1.6 | 3.2 | 0.00 | 0.00 | 0.00 | 48 | 1018.1 |
| 20260906112001 | 19 | 69 | 0.0 | 3.2 | 0.00 | 0.00 | 0.00 | 48 | 1017.8 |
| 20260906111500 | 19 | 69 | 1.6 | 4.8 | 0.00 | 0.00 | 0.00 | 48 | 1017.8 |
| 20260906111002 | 19 | 69 | 1.6 | 4.8 | 0.00 | 0.00 | 0.00 | 47 | 1017.7 |
| 20260906110459 | 19 | 69 | 1.6 | 4.8 | 0.00 | 0.00 | 0.00 | 47 | 1017.8 |
| 20260906105959 | 19 | 69 | 1.6 | 4.8 | 0.00 | 0.00 | 0.00 | 47 | 1017.8 |
| 20260906105459 | 19 | 69 | 1.6 | 4.8 | 0.00 | 0.00 | 0.00 | 47 | 1017.8 |
| 20260906104955 | 19 | 69 | 1.6 | 3.2 | 0.00 | 0.00 | 0.00 | 46 | 1017.7 |
| 20260906103953 | 19 | 69 | 1.6 | 3.2 | 0.00 | 0.00 | 0.00 | 46 | 1017.5 |
| 20260906103453 | 19 | 69 | 1.6 | 8.0 | 0.00 | 0.00 | 0.00 | 46 | 1017.4 |
| 20260906102953 | 19 | 69 | 0.0 | 8.0 | 0.00 | 0.00 | 0.00 | 45 | 1017.4 |
| 20260906102455 | 19 | 69 | 0.0 | 4.8 | 0.00 | 0.00 | 0.00 | 45 | 1017.3 |
| 20260906101952 | 19 | 69 | 0.0 | 4.8 | 0.00 | 0.00 | 0.00 | 44 | 1017.3 |
| 20260906100949 | 19 | 69 | 0.0 | 4.8 | 0.00 | 0.00 | 0.00 | 44 | 1017.4 |
| 20260906100449 | 19 | 69 | 1.6 | 4.8 | 0.00 | 0.00 | 0.00 | 43 | 1017.3 |
| 20260906095947 | 19 | 69 | 1.6 | 4.8 | 0.00 | 0.00 | 0.00 | 43 | 1017.3 |
| 20260906095447 | 19 | 69 | 1.6 | 4.8 | 0.00 | 0.00 | 0.00 | 43 | 1017.3 |
| 20260906094941 | 20 | 69 | 1.6 | 4.8 | 0.00 | 0.00 | 0.00 | 43 | 1017.3 |
| 20260906094439 | 20 | 69 | 0.0 | 4.8 | 0.00 | 0.00 | 0.00 | 43 | 1017.1 |
| 20260906093937 | 20 | 69 | 0.0 | 3.2 | 0.00 | 0.00 | 0.00 | 43 | 1017.2 |
| 20260906092935 | 20 | 69 | 1.6 | 4.8 | 0.00 | 0.00 | 0.00 | 42 | 1017.2 |
| 20260906092433 | 20 | 69 | 0.0 | 4.8 | 0.00 | 0.00 | 0.00 | 42 | 1017.3 |
| 20260906091931 | 20 | 69 | 1.6 | 4.8 | 0.00 | 0.00 | 0.00 | 42 | 1017.2 |
| 20260906091432 | 20 | 69 | 1.6 | 4.8 | 0.00 | 0.00 | 0.00 | 42 | 1017.0 |
| 20260906090931 | 20 | 69 | 1.6 | 4.8 | 0.00 | 0.00 | 0.00 | 41 | 1017.0 |
| 20260906090429 | 20 | 69 | 0.0 | 3.2 | 0.00 | 0.00 | 0.00 | 41 | 1017.1 |
| 20260906085425 | 20 | 69 | 1.6 | 3.2 | 0.00 | 0.00 | 0.00 | 41 | 1017.1 |
| 20260906084925 | 20 | 69 | 0.0 | 3.2 | 0.00 | 0.00 | 0.00 | 41 | 1017.0 |
| 20260906084425 | 20 | 69 | 0.0 | 4.8 | 0.00 | 0.00 | 0.00 | 42 | 1016.9 |
| 20260906083925 | 20 | 69 | 0.0 | 4.8 | 0.00 | 0.00 | 0.00 | 42 | 1016.9 |
| 20260906083423 | 20 | 69 | 0.0 | 4.8 | 0.00 | 0.00 | 0.00 | 43 | 1016.9 |
| 20260906082925 | 20 | 69 | 0.0 | 4.8 | 0.00 | 0.00 | 0.00 | 43 | 1017.0 |
| 20260906081915 | 20 | 69 | 0.0 | 3.2 | 0.00 | 0.00 | 0.00 | 45 | 1017.0 |
| 20260906081413 | 20 | 69 | 0.0 | 3.2 | 0.00 | 0.00 | 0.00 | 46 | 1017.1 |
| 20260906080911 | 20 | 69 | 0.0 | 1.6 | 0.00 | 0.00 | 0.00 | 48 | 1017.1 |
| 20260906080413 | 20 | 69 | 0.0 | 3.2 | 0.00 | 0.00 | 0.00 | 50 | 1017.1 |
| 20260906075905 | 20 | 69 | 0.0 | 3.2 | 0.00 | 0.00 | 0.00 | 50 | 1017.2 |
| 20260906074900 | 20 | 69 | 0.0 | 0.0 | 0.00 | 0.00 | 0.00 | 52 | 1017.3 |
| 20260906074358 | 21 | 69 | 0.0 | 1.6 | 0.00 | 0.00 | 0.00 | 52 | 1017.3 |
| 20260906073901 | 21 | 69 | 0.0 | 1.6 | 0.00 | 0.00 | 0.00 | 52 | 1017.2 |
| 20260906073356 | 21 | 69 | 0.0 | 1.6 | 0.00 | 0.00 | 0.00 | 52 | 1017.2 |
| 20260906072856 | 21 | 69 | 0.0 | 1.6 | 0.00 | 0.00 | 0.00 | 52 | 1017.1 |
| 20260906072357 | 21 | 69 | 0.0 | 1.6 | 0.00 | 0.00 | 0.00 | 53 | 1017.2 |
| 20260906071855 | 21 | 69 | 0.0 | 1.6 | 0.00 | 0.00 | 0.00 | 53 | 1017.2 |
| 20260906071353 | 21 | 69 | 0.0 | 1.6 | 0.00 | 0.00 | 0.00 | 53 | 1017.3 |
| 20260906070350 | 21 | 69 | 0.0 | 1.6 | 0.00 | 0.00 | 0.00 | 54 | 1017.4 |
| 20260906065848 | 21 | 69 | 0.0 | 1.6 | 0.00 | 0.00 | 0.00 | 55 | 1017.3 |
| 20260906065350 | 21 | 69 | 0.0 | 1.6 | 0.00 | 0.00 | 0.00 | 55 | 1017.5 |
| 20260906064846 | 21 | 69 | 0.0 | 3.2 | 0.00 | 0.00 | 0.00 | 56 | 1017.5 |
| 20260906063846 | 21 | 69 | 0.0 | 1.6 | 0.00 | 0.00 | 0.00 | 57 | 1017.3 |
| 20260906063345 | 21 | 69 | 0.0 | 1.6 | 0.00 | 0.00 | 0.00 | 57 | 1017.2 |
| 20260906062843 | 21 | 69 | 0.0 | 1.6 | 0.00 | 0.00 | 0.00 | 57 | 1017.3 |
| 20260906062343 | 21 | 69 | 0.0 | 1.6 | 0.00 | 0.00 | 0.00 | 57 | 1017.3 |
| 20260906061842 | 21 | 69 | 0.0 | 1.6 | 0.00 | 0.00 | 0.00 | 57 | 1017.3 |
| 20260906061342 | 21 | 69 | 0.0 | 3.2 | 0.00 | 0.00 | 0.00 | 57 | 1017.3 |
| 20260906060840 | 21 | 69 | 0.0 | 3.2 | 0.00 | 0.00 | 0.00 | 57 | 1017.2 |
| 20260906060343 | 21 | 69 | 0.0 | 3.2 | 0.00 | 0.00 | 0.00 | 57 | 1017.3 |
| 20260906055835 | 21 | 69 | 0.0 | 3.2 | 0.00 | 0.00 | 0.00 | 57 | 1017.3 |
| 20260906055335 | 21 | 69 | 0.0 | 3.2 | 0.00 | 0.00 | 0.00 | 57 | 1017.3 |
| 20260906054836 | 21 | 69 | 0.0 | 4.8 | 0.00 | 0.00 | 0.00 | 57 | 1017.2 |
| 20260906054334 | 21 | 69 | 0.0 | 4.8 | 0.00 | 0.00 | 0.00 | 57 | 1017.1 |
| 20260906052833 | 21 | 69 | 0.0 | 3.2 | 0.00 | 0.00 | 0.00 | 57 | 1017.2 |
| 20260906052332 | 21 | 69 | 0.0 | 4.8 | 0.00 | 0.00 | 0.00 | 57 | 1017.2 |
| 20260906051833 | 21 | 69 | 0.0 | 4.8 | 0.00 | 0.00 | 0.00 | 58 | 1017.1 |
| 20260906051331 | 21 | 69 | 0.0 | 6.4 | 0.00 | 0.00 | 0.00 | 58 | 1016.9 |
| 20260906050831 | 21 | 69 | 0.0 | 6.4 | 0.00 | 0.00 | 0.00 | 58 | 1016.9 |
| 20260906045830 | 21 | 69 | 0.0 | 1.6 | 0.00 | 0.00 | 0.00 | 58 | 1016.9 |
| 20260906045330 | 21 | 69 | 0.0 | 3.2 | 0.00 | 0.00 | 0.00 | 59 | 1016.9 |
| 20260906044829 | 21 | 69 | 0.0 | 3.2 | 0.00 | 0.00 | 0.00 | 59 | 1016.9 |
| 20260906043826 | 21 | 69 | 0.0 | 6.4 | 0.00 | 0.00 | 0.00 | 59 | 1016.7 |
| 20260906043324 | 22 | 69 | 0.0 | 3.2 | 0.00 | 0.00 | 0.00 | 59 | 1016.7 |
| 20260906042824 | 22 | 69 | 0.0 | 4.8 | 0.00 | 0.00 | 0.00 | 59 | 1016.6 |
| 20260906041825 | 22 | 69 | 0.0 | 3.2 | 0.00 | 0.00 | 0.00 | 59 | 1016.5 |
| 20260906041324 | 22 | 69 | 0.0 | 3.2 | 0.00 | 0.00 | 0.00 | 59 | 1016.4 |
| 20260906040820 | 22 | 69 | 0.0 | 6.4 | 0.00 | 0.00 | 0.00 | 59 | 1016.3 |
| 20260906040321 | 22 | 69 | 1.6 | 8.0 | 0.00 | 0.00 | 0.00 | 59 | 1016.2 |
| 20260906035820 | 22 | 69 | 1.6 | 8.0 | 0.00 | 0.00 | 0.00 | 59 | 1016.1 |
| 20260906035320 | 22 | 69 | 1.6 | 6.4 | 0.00 | 0.00 | 0.00 | 59 | 1016.2 |
| 20260906034820 | 22 | 69 | 0.0 | 4.8 | 0.00 | 0.00 | 0.00 | 59 | 1016.2 |
| 20260906033316 | 22 | 69 | 1.6 | 8.0 | 0.00 | 0.00 | 0.00 | 59 | 1016.2 |
| 20260906032817 | 22 | 69 | 0.0 | 9.7 | 0.00 | 0.00 | 0.00 | 59 | 1016.0 |
| 20260906032316 | 22 | 69 | 0.0 | 9.7 | 0.00 | 0.00 | 0.00 | 59 | 1016.0 |
| 20260906031816 | 22 | 69 | 0.0 | 3.2 | 0.00 | 0.00 | 0.00 | 59 | 1016.0 |
| 20260906031317 | 22 | 69 | 0.0 | 6.4 | 0.00 | 0.00 | 0.00 | 59 | 1015.9 |
| 20260906030312 | 22 | 69 | 0.0 | 6.4 | 0.00 | 0.00 | 0.00 | 59 | 1016.0 |
| 20260906025812 | 22 | 69 | 0.0 | 6.4 | 0.00 | 0.00 | 0.00 | 59 | 1016.0 |
| 20260906025312 | 22 | 69 | 1.6 | 6.4 | 0.00 | 0.00 | 0.00 | 59 | 1016.0 |
| 20260906024312 | 22 | 69 | 0.0 | 6.4 | 0.00 | 0.00 | 0.00 | 59 | 1016.1 |
| 20260906023811 | 22 | 69 | 1.6 | 4.8 | 0.00 | 0.00 | 0.00 | 59 | 1016.0 |
| 20260906023306 | 22 | 69 | 1.6 | 6.4 | 0.00 | 0.00 | 0.00 | 58 | 1016.1 |
| 20260906022301 | 22 | 69 | 0.0 | 4.8 | 0.00 | 0.00 | 0.00 | 58 | 1016.1 |
| 20260906021801 | 22 | 69 | 0.0 | 3.2 | 0.00 | 0.00 | 0.00 | 58 | 1016.0 |
| 20260906021300 | 22 | 69 | 0.0 | 4.8 | 0.00 | 0.00 | 0.00 | 58 | 1016.0 |
| 20260906020258 | 22 | 69 | 1.6 | 6.4 | 0.00 | 0.00 | 0.00 | 58 | 1015.9 |
| 20260906015759 | 22 | 69 | 3.2 | 16.1 | 0.00 | 0.00 | 0.00 | 58 | 1015.8 |
| 20260906015250 | 22 | 69 | 3.2 | 16.1 | 0.00 | 0.00 | 0.00 | 58 | 1015.9 |
| 20260906014248 | 22 | 69 | 3.2 | 12.9 | 0.00 | 0.00 | 0.00 | 58 | 1016.0 |
| 20260906013748 | 22 | 69 | 3.2 | 8.0 | 0.00 | 0.00 | 0.00 | 58 | 1016.0 |
| 20260906013248 | 22 | 69 | 3.2 | 9.7 | 0.00 | 0.00 | 0.00 | 58 | 1016.0 |
| 20260906012242 | 22 | 69 | 1.6 | 8.0 | 0.00 | 0.00 | 0.00 | 58 | 1016.0 |
| 20260906011742 | 22 | 69 | 1.6 | 9.7 | 0.00 | 0.00 | 0.00 | 58 | 1016.0 |
| 20260906011243 | 22 | 69 | 1.6 | 9.7 | 0.00 | 0.00 | 0.00 | 58 | 1015.9 |
| 20260906010742 | 22 | 69 | 1.6 | 8.0 | 0.00 | 0.00 | 0.00 | 58 | 1015.9 |
| 20260906010242 | 22 | 69 | 3.2 | 9.7 | 0.00 | 0.00 | 0.00 | 58 | 1015.9 |
| 20260906005235 | 22 | 69 | 3.2 | 9.7 | 0.00 | 0.00 | 0.00 | 58 | 1015.9 |
| 20260906004734 | 22 | 69 | 1.6 | 14.5 | 0.00 | 0.00 | 0.00 | 59 | 1015.9 |
| 20260906004237 | 22 | 69 | 1.6 | 14.5 | 0.00 | 0.00 | 0.00 | 59 | 1015.8 |
| 20260906003732 | 22 | 69 | 1.6 | 9.7 | 0.00 | 0.00 | 0.00 | 59 | 1015.8 |
| 20260906003232 | 23 | 69 | 1.6 | 9.7 | 0.00 | 0.00 | 0.00 | 59 | 1015.6 |
| 20260906002732 | 23 | 69 | 1.6 | 8.0 | 0.00 | 0.00 | 0.00 | 59 | 1015.5 |
| 20260906001728 | 23 | 69 | 3.2 | 9.7 | 0.00 | 0.00 | 0.00 | 58 | 1015.4 |
| 20260906001227 | 23 | 69 | 1.6 | 9.7 | 0.00 | 0.00 | 0.00 | 58 | 1015.3 |
| 20260906000726 | 23 | 69 | 1.6 | 8.0 | 0.00 | 0.00 | 0.00 | 58 | 1015.2 |
| 20260906000226 | 23 | 69 | 1.6 | 6.4 | 0.00 | 0.00 | 0.00 | 58 | 1015.2 |
| 20260905235724 | 23 | 69 | 1.6 | 6.4 | 0.00 | 0.00 | 0.00 | 57 | 1015.0 |
| 20260905235223 | 24 | 69 | 1.6 | 8.0 | 0.00 | 0.00 | 0.00 | 57 | 1014.9 |
| 20260905233721 | 25 | 69 | 1.6 | 9.7 | 0.00 | 0.00 | 0.00 | 55 | 1015.0 |
| 20260905233218 | 25 | 69 | 1.6 | 9.7 | 0.00 | 0.00 | 0.00 | 55 | 1015.0 |
| 20260905232720 | 25 | 69 | 1.6 | 6.4 | 0.00 | 0.00 | 0.00 | 56 | 1015.0 |
| 20260905231714 | 25 | 69 | 1.6 | 8.0 | 0.00 | 0.00 | 0.00 | 55 | 1014.8 |
| 20260905231214 | 26 | 69 | 1.6 | 8.0 | 0.00 | 0.00 | 0.00 | 54 | 1014.8 |
| 20260905230715 | 26 | 70 | 3.2 | 8.0 | 0.00 | 0.00 | 0.00 | 54 | 1014.7 |
| 20260905225712 | 26 | 69 | 3.2 | 8.0 | 0.00 | 0.00 | 0.00 | 52 | 1014.6 |
| 20260905225210 | 26 | 69 | 1.6 | 6.4 | 0.00 | 0.00 | 0.00 | 52 | 1014.5 |
| 20260905224209 | 27 | 69 | 1.6 | 6.4 | 0.00 | 0.00 | 0.00 | 50 | 1014.4 |
| 20260905223707 | 28 | 69 | 1.6 | 14.5 | 0.00 | 0.00 | 0.00 | 49 | 1014.4 |
| 20260905223206 | 28 | 69 | 1.6 | 14.5 | 0.00 | 0.00 | 0.00 | 48 | 1014.2 |
| 20260905222705 | 27 | 69 | 3.2 | 9.7 | 0.00 | 0.00 | 0.00 | 49 | 1014.2 |
| 20260905221658 | 27 | 69 | 3.2 | 9.7 | 0.00 | 0.00 | 0.00 | 48 | 1014.2 |
| 20260905221157 | 28 | 69 | 3.2 | 9.7 | 0.00 | 0.00 | 0.00 | 49 | 1014.1 |
| 20260905220654 | 27 | 69 | 3.2 | 9.7 | 0.00 | 0.00 | 0.00 | 49 | 1014.0 |
| 20260905220154 | 27 | 69 | 3.2 | 9.7 | 0.00 | 0.00 | 0.00 | 49 | 1014.1 |
| 20260905215648 | 27 | 69 | 1.6 | 6.4 | 0.00 | 0.00 | 0.00 | 50 | 1014.2 |
| 20260905215148 | 27 | 69 | 1.6 | 8.0 | 0.00 | 0.00 | 0.00 | 51 | 1014.3 |
| 20260905214647 | 27 | 69 | 1.6 | 8.0 | 0.00 | 0.00 | 0.00 | 50 | 1014.4 |
| 20260905214148 | 27 | 69 | 1.6 | 8.0 | 0.00 | 0.00 | 0.00 | 49 | 1014.4 |
| 20260905213648 | 27 | 69 | 1.6 | 6.4 | 0.00 | 0.00 | 0.00 | 50 | 1014.4 |
| 20260905213150 | 27 | 69 | 3.2 | 8.0 | 0.00 | 0.00 | 0.00 | 51 | 1014.3 |
| 20260905212646 | 27 | 69 | 1.6 | 8.0 | 0.00 | 0.00 | 0.00 | 53 | 1014.3 |
| 20260905212144 | 27 | 69 | 1.6 | 8.0 | 0.00 | 0.00 | 0.00 | 52 | 1014.3 |
| 20260905211643 | 27 | 69 | 1.6 | 8.0 | 0.00 | 0.00 | 0.00 | 51 | 1014.4 |
| 20260905211142 | 27 | 69 | 1.6 | 8.0 | 0.00 | 0.00 | 0.00 | 51 | 1014.3 |
| 20260905210141 | 27 | 69 | 1.6 | 8.0 | 0.00 | 0.00 | 0.00 | 51 | 1014.5 |
| 20260905205636 | 27 | 69 | 1.6 | 8.0 | 0.00 | 0.00 | 0.00 | 53 | 1014.5 |
| 20260905204639 | 26 | 69 | 1.6 | 3.2 | 0.00 | 0.00 | 0.00 | 54 | 1014.6 |
| 20260905204136 | 26 | 69 | 1.6 | 4.8 | 0.00 | 0.00 | 0.00 | 54 | 1014.7 |
| 20260905203635 | 26 | 69 | 1.6 | 6.4 | 0.00 | 0.00 | 0.00 | 54 | 1014.7 |
| 20260905203135 | 26 | 69 | 3.2 | 8.0 | 0.00 | 0.00 | 0.00 | 54 | 1014.8 |
| 20260905202132 | 26 | 69 | 1.6 | 6.4 | 0.00 | 0.00 | 0.00 | 53 | 1014.8 |
| 20260905201633 | 26 | 69 | 1.6 | 6.4 | 0.00 | 0.00 | 0.00 | 54 | 1014.8 |
| 20260905201132 | 26 | 69 | 3.2 | 9.7 | 0.00 | 0.00 | 0.00 | 55 | 1014.8 |
| 20260905200629 | 26 | 69 | 3.2 | 9.7 | 0.00 | 0.00 | 0.00 | 55 | 1014.9 |
| 20260905200133 | 26 | 69 | 3.2 | 8.0 | 0.00 | 0.00 | 0.00 | 55 | 1014.8 |
| 20260905195624 | 26 | 69 | 3.2 | 14.5 | 0.00 | 0.00 | 0.00 | 55 | 1014.8 |
| 20260905195122 | 26 | 69 | 3.2 | 14.5 | 0.00 | 0.00 | 0.00 | 55 | 1014.8 |
| 20260905194620 | 26 | 69 | 3.2 | 12.9 | 0.00 | 0.00 | 0.00 | 54 | 1014.8 |
| 20260905194117 | 26 | 69 | 3.2 | 9.7 | 0.00 | 0.00 | 0.00 | 54 | 1014.8 |
| 20260905193621 | 26 | 69 | 3.2 | 12.9 | 0.00 | 0.00 | 0.00 | 54 | 1014.8 |
| 20260905193116 | 26 | 69 | 4.8 | 14.5 | 0.00 | 0.00 | 0.00 | 55 | 1014.9 |
| 20260905192613 | 26 | 69 | 3.2 | 14.5 | 0.00 | 0.00 | 0.00 | 54 | 1014.8 |
| 20260905192114 | 26 | 69 | 1.6 | 9.7 | 0.00 | 0.00 | 0.00 | 54 | 1014.9 |
| 20260905191614 | 26 | 69 | 3.2 | 9.7 | 0.00 | 0.00 | 0.00 | 53 | 1015.0 |
| 20260905191111 | 26 | 69 | 4.8 | 12.9 | 0.00 | 0.00 | 0.00 | 53 | 1014.9 |
| 20260905190612 | 27 | 69 | 3.2 | 12.9 | 0.00 | 0.00 | 0.00 | 52 | 1015.0 |
| 20260905190106 | 27 | 69 | 3.2 | 14.5 | 0.00 | 0.00 | 0.00 | 52 | 1014.9 |
| 20260905185603 | 27 | 69 | 4.8 | 14.5 | 0.00 | 0.00 | 0.00 | 51 | 1014.9 |
| 20260905185102 | 27 | 69 | 4.8 | 12.9 | 0.00 | 0.00 | 0.00 | 51 | 1014.9 |
| 20260905184559 | 27 | 69 | 4.8 | 12.9 | 0.00 | 0.00 | 0.00 | 52 | 1014.9 |
| 20260905184059 | 27 | 69 | 4.8 | 12.9 | 0.00 | 0.00 | 0.00 | 52 | 1014.9 |
| 20260905183558 | 27 | 69 | 3.2 | 12.9 | 0.00 | 0.00 | 0.00 | 53 | 1015.0 |
| 20260905183055 | 27 | 69 | 3.2 | 12.9 | 0.00 | 0.00 | 0.00 | 52 | 1015.0 |
| 20260905182054 | 27 | 69 | 3.2 | 12.9 | 0.00 | 0.00 | 0.00 | 52 | 1015.0 |
| 20260905181554 | 27 | 69 | 4.8 | 14.5 | 0.00 | 0.00 | 0.00 | 52 | 1014.9 |
| 20260905180548 | 27 | 69 | 3.2 | 9.7 | 0.00 | 0.00 | 0.00 | 53 | 1014.8 |
| 20260905180048 | 27 | 69 | 3.2 | 9.7 | 0.00 | 0.00 | 0.00 | 53 | 1014.8 |
| 20260905175548 | 27 | 69 | 3.2 | 9.7 | 0.00 | 0.00 | 0.00 | 52 | 1014.9 |
| 20260905174545 | 27 | 69 | 3.2 | 9.7 | 0.00 | 0.00 | 0.00 | 53 | 1014.7 |
| 20260905174045 | 27 | 69 | 3.2 | 14.5 | 0.00 | 0.00 | 0.00 | 53 | 1014.7 |
| 20260905173036 | 28 | 69 | 3.2 | 9.7 | 0.00 | 0.00 | 0.00 | 51 | 1014.7 |
| 20260905172531 | 28 | 69 | 3.2 | 9.7 | 0.00 | 0.00 | 0.00 | 53 | 1014.7 |
| 20260905172029 | 27 | 69 | 3.2 | 9.7 | 0.00 | 0.00 | 0.00 | 52 | 1014.7 |
| 20260905171530 | 28 | 69 | 3.2 | 9.7 | 0.00 | 0.00 | 0.00 | 52 | 1014.7 |
| 20260905171030 | 28 | 69 | 3.2 | 9.7 | 0.00 | 0.00 | 0.00 | 52 | 1014.7 |
| 20260905170528 | 27 | 69 | 3.2 | 9.7 | 0.00 | 0.00 | 0.00 | 52 | 1014.8 |
| 20260905170028 | 28 | 69 | 3.2 | 12.9 | 0.00 | 0.00 | 0.00 | 52 | 1014.8 |
| 20260905165527 | 28 | 69 | 3.2 | 12.9 | 0.00 | 0.00 | 0.00 | 52 | 1014.8 |
| 20260905164524 | 28 | 69 | 1.6 | 4.8 | 0.00 | 0.00 | 0.00 | 50 | 1014.9 |
| 20260905164023 | 28 | 69 | 1.6 | 8.0 | 0.00 | 0.00 | 0.00 | 50 | 1015.0 |
| 20260905163524 | 28 | 69 | 1.6 | 12.9 | 0.00 | 0.00 | 0.00 | 51 | 1015.0 |
| 20260905163024 | 28 | 69 | 1.6 | 12.9 | 0.00 | 0.00 | 0.00 | 51 | 1015.0 |
| 20260905162523 | 28 | 69 | 1.6 | 4.8 | 0.00 | 0.00 | 0.00 | 52 | 1014.9 |
| 20260905162019 | 27 | 69 | 3.2 | 9.7 | 0.00 | 0.00 | 0.00 | 53 | 1014.9 |
| 20260905161519 | 27 | 69 | 4.8 | 16.1 | 0.00 | 0.00 | 0.00 | 53 | 1015.0 |
| 20260905161022 | 27 | 69 | 3.2 | 16.1 | 0.00 | 0.00 | 0.00 | 52 | 1015.0 |
| 20260905160520 | 27 | 69 | 1.6 | 8.0 | 0.00 | 0.00 | 0.00 | 51 | 1015.0 |
| 20260905160020 | 27 | 69 | 1.6 | 8.0 | 0.00 | 0.00 | 0.00 | 52 | 1015.0 |
| 20260905155519 | 27 | 69 | 1.6 | 8.0 | 0.00 | 0.00 | 0.00 | 52 | 1014.8 |
| 20260905155015 | 27 | 69 | 1.6 | 6.4 | 0.00 | 0.00 | 0.00 | 52 | 1014.8 |
| 20260905154015 | 27 | 69 | 1.6 | 8.0 | 0.00 | 0.00 | 0.00 | 52 | 1014.7 |
| 20260905153515 | 27 | 69 | 1.6 | 6.4 | 0.00 | 0.00 | 0.00 | 52 | 1014.8 |
| 20260905152516 | 27 | 69 | 1.6 | 9.7 | 0.00 | 0.00 | 0.00 | 52 | 1014.8 |
| 20260905151514 | 27 | 69 | 1.6 | 8.0 | 0.00 | 0.00 | 0.00 | 52 | 1014.6 |
| 20260905150512 | 26 | 69 | 1.6 | 12.9 | 0.00 | 0.00 | 0.00 | 51 | 1014.5 |
| 20260905150010 | 26 | 69 | 1.6 | 8.0 | 0.00 | 0.00 | 0.00 | 51 | 1014.5 |
| 20260905145510 | 26 | 69 | 1.6 | 12.9 | 0.00 | 0.00 | 0.00 | 51 | 1014.4 |
| 20260905145007 | 25 | 69 | 1.6 | 12.9 | 0.00 | 0.00 | 0.00 | 50 | 1014.4 |
| 20260905144507 | 25 | 69 | 1.6 | 12.9 | 0.00 | 0.00 | 0.00 | 50 | 1014.4 |
| 20260905144001 | 25 | 69 | 1.6 | 8.0 | 0.00 | 0.00 | 0.00 | 49 | 1014.3 |
| 20260905143500 | 25 | 69 | 1.6 | 8.0 | 0.00 | 0.00 | 0.00 | 48 | 1014.3 |
| 20260905142455 | 24 | 69 | 3.2 | 12.9 | 0.00 | 0.00 | 0.00 | 46 | 1014.4 |
| 20260905141955 | 24 | 69 | 3.2 | 12.9 | 0.00 | 0.00 | 0.00 | 44 | 1014.4 |
| 20260905141453 | 23 | 69 | 3.2 | 12.9 | 0.00 | 0.00 | 0.00 | 44 | 1014.3 |
| 20260905140951 | 23 | 69 | 1.6 | 6.4 | 0.00 | 0.00 | 0.00 | 43 | 1014.2 |
| 20260905140450 | 23 | 69 | 1.6 | 8.0 | 0.00 | 0.00 | 0.00 | 42 | 1014.2 |
| 20260905135949 | 23 | 69 | 1.6 | 8.0 | 0.00 | 0.00 | 0.00 | 42 | 1014.1 |
| 20260905135447 | 23 | 69 | 1.6 | 8.0 | 0.00 | 0.00 | 0.00 | 42 | 1014.1 |
| 20260905134949 | 23 | 69 | 1.6 | 6.4 | 0.00 | 0.00 | 0.00 | 43 | 1014.1 |
| 20260905134445 | 23 | 69 | 1.6 | 6.4 | 0.00 | 0.00 | 0.00 | 43 | 1014.1 |
| 20260905133943 | 23 | 69 | 1.6 | 6.4 | 0.00 | 0.00 | 0.00 | 44 | 1014.1 |
| 20260905132943 | 24 | 69 | 3.2 | 8.0 | 0.00 | 0.00 | 0.00 | 44 | 1014.0 |
| 20260905132443 | 24 | 69 | 3.2 | 9.7 | 0.00 | 0.00 | 0.00 | 45 | 1014.2 |
| 20260905131944 | 24 | 69 | 3.2 | 9.7 | 0.00 | 0.00 | 0.00 | 45 | 1014.2 |
| 20260905130937 | 24 | 69 | 1.6 | 8.0 | 0.00 | 0.00 | 0.00 | 48 | 1014.2 |